Simultaneous Nadir Overpasses (SNOs) Predictions

Prediction of SNOs between GOES-16 and NPP Satellite Orbit:

Table of predicted SNOs for the next 14.0 days since TLE Epoch: 3/25/2023
Index Date Time (GOES-16) GOES-16 Lat,Lon NPP Lat,Lon Distance(km) Time Diff (sec)
1 03/25/2023 18:37:45 0.06, -75.19 -0.39, -77.20 228.84 80
2 03/26/2023 18:16:22 0.06, -75.20 0.62, -72.67 287.60 80
3 03/28/2023 06:40:51 -0.06, -75.20 0.56, -77.94 311.82 80
4 03/29/2023 06:19:28 -0.05, -75.21 -0.47, -73.41 204.90 80
5 03/30/2023 18:44:05 0.04, -75.21 -0.75, -78.71 398.93 80
6 03/31/2023 18:22:42 0.04, -75.22 0.28, -74.18 118.32 80
7 04/02/2023 06:47:10 -0.03, -75.24 0.94, -79.44 479.58 80
8 04/03/2023 06:25:46 -0.03, -75.25 -0.10, -74.92 38.11 80
9 04/05/2023 18:31:40 0.03, -75.28 -0.06, -75.69 46.36 80
10 04/06/2023 18:10:17 0.03, -75.30 0.98, -71.17 471.81 80
